OPS 4682 DEB, 19242

Orbit data source: Space-Track

OPS 4682 DEB, 19242 is space debris in LEO originally from a launch on Sat, 03 Apr 1965 UTC launched from the Air Force Western Test Range (AFWTR). Debris objects in space refer to the collection of defunct objects orbiting the Earth. Examples of debris include non-operational satellites, rocket bodies, and fragments generated from explosions, collisions, or faulty payload assembly.

Loading next visibility...
Identifier
19242, 1965-027AS
Orbit
LEO
Country
Flag of USUS
Related business
Manufacturer
Unknown
Mission
Spacecraft
Bus & Motor
Unknown
Mass
Unknown
Launch date (UTC)
1965-04-03 (61 years ago)
Launch vehicle
Unknown
Launch site
Air Force Western Test Range (AFWTR)
Object type
Payload
Rocket body
Debris
Shape & HBR
Unknown shape, 0.1 m
Radar Cross Section
Small (<0.1 m²)

Expand to show TLE details & history
Last TLE update: 3 days ago

TLE from 3 days ago
0 OPS 4682 DEB
1 19242U 65027AS  26105.24194718  .00000336  00000-0  10641-2 0  9994
2 19242  90.2668  24.5443 0026844 280.9271 234.7822 13.01717753629130
Epoch: 2026-04-15T05:48Z
TLE epoch observation values (Epoch: 2026-04-15T05:48:24.236Z)
Latitude
24.56427°
Longitude
-85.842°
Altitude
1,270.191 km
Speed
7.217 km/s
True Right ascension
13h 38m 39s
True Declination
24° 26' 36"
Sunlit
Object was in full shadow at epoch
Visualization orbit readout
Latitude
Unknown
Longitude
Unknown
Altitude
Unknown
Speed
Unknown
Apparent Right ascension
Unknown
Apparent Declination
Unknown
Sunlit
N/A
Visualization observer readout
Local Sidereal Time
01:54:28
Azimuth
Unknown
Elevation
Unknown
Doppler factor
Unknown
Orbital elements
Apogee altitude
1,272.972 km
Perigee altitude
1,232.005 km
Semi-major axis
7,630.625 km
Eccentricity
0.00268
Inclination
90.2668°
RAAN
24.5443°
Arg. of periapsis
280.9271°
True anomaly
234.53138°
Mean anomaly
234.7822°
Eccentric anomaly
234.65674°
Mean motion
3.25614 °/min
Orbital period
110.56 mins
BSTAR
0.0010641
Loading maneuver chart data...
Computing Atmospheric mass density...
Loading historical data...
Loading historical data...
Loading historical data...
Loading historical data...
Loading historical data...
Loading historical data...
Loading historical data...

Documentation

Showing up to 5 results
|